Find Starlink 1625

NORAD ID: 46131 Int'l Des: 2020-057 Owner: SPXS Country: US Constellation: starlink decayed
LEOCIRCULAR
Vis

Historical Track — Apr 9, 2026

正在加载3D地球...

关于 Starlink 1625

正在加载描述...

高度历史

Loading altitude history...

两行轨道根数

1 46131U 20057Q 26099.27111318 .12087427 12438-4 60993-3 0 9992
2 46131 53.0263 90.6018 0003524 265.7650 94.2995 16.42880097313173
Epoch: Apr 9, 2026 • Age: 761 hours

当前状态

Position data unavailable
发射日期 Aug 18, 2020
运行时间 5.7 years
衰减日期 Apr 9, 2026
类型 internet

技术详情

分类 Payload
质量 260.00 kg
干质量 248.00 kg
总质量 260.00 kg
长度 0.20 m
直径 2.80 m
跨度 9.00 m
形状 Box + pan
制造商 SPXS
平台类型 Starlink
阶段状态 Unknown Transfer Status
所有者/国家 SPXS/US

Most Searched